When you browse on this site, cookies collect data to enhance your experience and personalize the content and advertising you see.
Visit our Privacy Policy to learn more. By continuing to use the site, you agree to this use of cookies and data.

Hourly Weather Sadry

Today, 13 July, Monday

Time Temperature Precipitation Wind Pressure Humidity
00:00 +9°C° 0 mm 2 mps 754 mmHg 93%
01:00 +9°C° 0 mm 3 mps 754 mmHg 94%
02:00 +8°C° 0 mm 3 mps 754 mmHg 95%
03:00 +8°C° 0 mm 3 mps 754 mmHg 95%
04:00 +8°C° 0 mm 3 mps 753 mmHg 96%
05:00 +10°C° 0 mm 3 mps 754 mmHg 92%
06:00 +11°C° 0 mm 3 mps 754 mmHg 88%
07:00 +13°C° 0 mm 4 mps 754 mmHg 85%
08:00 +14°C° 0.3 mm 4 mps 753 mmHg 81%
09:00 +17°C° 0.3 mm 4 mps 753 mmHg 78%
10:00 +18°C° 0.3 mm 4 mps 753 mmHg 74%
11:00 +18°C° 0.4 mm 4 mps 753 mmHg 75%
12:00 +18°C° 0.4 mm 4 mps 753 mmHg 76%
13:00 +17°C° 0.4 mm 5 mps 753 mmHg 76%
14:00 +17°C° 0.2 mm 5 mps 752 mmHg 76%
15:00 +17°C° 0.2 mm 5 mps 752 mmHg 75%
16:00 +17°C° 0.2 mm 5 mps 752 mmHg 74%
17:00 +17°C° 0 mm 4 mps 752 mmHg 78%
18:00 +16°C° 0 mm 3 mps 752 mmHg 82%
19:00 +14°C° 0 mm 3 mps 752 mmHg 87%
20:00 +14°C° 0 mm 2 mps 752 mmHg 89%
21:00 +13°C° 0 mm 2 mps 752 mmHg 92%
22:00 +12°C° 0 mm 2 mps 752 mmHg 95%
23:00 +12°C° 0 mm 2 mps 752 mmHg 95%

Tomorrow, 14 July, Tuesday

Time Temperature Precipitation Wind Pressure Humidity
00:00 +10°C° 0 mm 2 mps 752 mmHg 94%
01:00 +10°C° 0 mm 2 mps 752 mmHg 94%
02:00 +10°C° 0 mm 2 mps 752 mmHg 94%
03:00 +10°C° 0 mm 2 mps 751 mmHg 94%
04:00 +10°C° 0 mm 2 mps 751 mmHg 94%
05:00 +12°C° 0 mm 2 mps 751 mmHg 89%
06:00 +14°C° 0 mm 2 mps 751 mmHg 84%
07:00 +15°C° 0 mm 2 mps 752 mmHg 79%
08:00 +16°C° 0 mm 2 mps 751 mmHg 74%
09:00 +18°C° 0 mm 2 mps 751 mmHg 69%
10:00 +19°C° 0 mm 2 mps 751 mmHg 64%
11:00 +20°C° 0 mm 2 mps 751 mmHg 63%
12:00 +20°C° 0 mm 2 mps 751 mmHg 62%
13:00 +21°C° 0 mm 3 mps 751 mmHg 61%
14:00 +21°C° 0 mm 3 mps 750 mmHg 62%
15:00 +21°C° 0 mm 3 mps 750 mmHg 62%
16:00 +21°C° 0 mm 3 mps 750 mmHg 63%
17:00 +19°C° 0 mm 2 mps 750 mmHg 69%
18:00 +18°C° 0 mm 2 mps 750 mmHg 76%
19:00 +17°C° 0 mm 2 mps 750 mmHg 82%
20:00 +15°C° 0 mm 1 mps 750 mmHg 84%
21:00 +14°C° 0 mm 1 mps 750 mmHg 86%
22:00 +13°C° 0 mm 1 mps 750 mmHg 87%
23:00 +12°C° 0 mm 1 mps 750 mmHg 87%

Day after tomorrow, 15 July, Wednesday

Time Temperature Precipitation Wind Pressure Humidity
00:00 +12°C° 0 mm 1 mps 750 mmHg 87%
01:00 +12°C° 0 mm 1 mps 750 mmHg 87%
02:00 +12°C° 0 mm 1 mps 749 mmHg 88%
03:00 +12°C° 0 mm 1 mps 749 mmHg 88%
04:00 +12°C° 0 mm 1 mps 749 mmHg 89%
05:00 +14°C° 0 mm 1 mps 749 mmHg 84%
06:00 +16°C° 0 mm 1 mps 749 mmHg 79%
07:00 +19°C° 0 mm 1 mps 749 mmHg 74%
08:00 +20°C° 0 mm 1 mps 749 mmHg 68%
09:00 +22°C° 0 mm 1 mps 749 mmHg 62%
10:00 +23°C° 0 mm 2 mps 749 mmHg 56%
11:00 +24°C° 0 mm 2 mps 749 mmHg 54%
12:00 +24°C° 0 mm 2 mps 748 mmHg 52%
13:00 +25°C° 0 mm 2 mps 748 mmHg 51%
14:00 +24°C° 0 mm 3 mps 748 mmHg 53%
15:00 +24°C° 0 mm 3 mps 748 mmHg 55%
16:00 +24°C° 0 mm 3 mps 747 mmHg 58%
17:00 +22°C° 0 mm 3 mps 747 mmHg 63%
18:00 +20°C° 0 mm 3 mps 747 mmHg 69%
19:00 +19°C° 0 mm 2 mps 747 mmHg 75%
20:00 +18°C° 0.1 mm 3 mps 747 mmHg 77%
21:00 +16°C° 0.1 mm 3 mps 747 mmHg 78%
22:00 +14°C° 0.1 mm 3 mps 747 mmHg 80%
23:00 +14°C° 0.1 mm 3 mps 747 mmHg 81%

16 July, Thursday

Time Temperature Precipitation Wind Pressure Humidity
00:00 +13°C° 0.1 mm 3 mps 747 mmHg 82%
01:00 +13°C° 0.1 mm 3 mps 746 mmHg 83%
02:00 +13°C° 0 mm 3 mps 746 mmHg 84%
03:00 +13°C° 0 mm 3 mps 746 mmHg 85%
04:00 +13°C° 0 mm 3 mps 746 mmHg 85%
05:00 +14°C° 0 mm 3 mps 746 mmHg 84%
06:00 +17°C° 0 mm 3 mps 746 mmHg 83%
07:00 +18°C° 0 mm 3 mps 746 mmHg 82%
08:00 +19°C° 0.6 mm 3 mps 746 mmHg 80%
09:00 +21°C° 0.6 mm 3 mps 746 mmHg 78%
10:00 +22°C° 0.6 mm 3 mps 746 mmHg 76%
11:00 +21°C° 1.1 mm 3 mps 746 mmHg 78%
12:00 +21°C° 1.1 mm 2 mps 746 mmHg 80%
13:00 +21°C° 1.1 mm 1 mps 746 mmHg 83%
14:00 +21°C° 0.4 mm 1 mps 746 mmHg 85%
15:00 +20°C° 0.4 mm 1 mps 746 mmHg 87%
16:00 +20°C° 0.4 mm 1 mps 745 mmHg 90%
17:00 +19°C° 0.2 mm 1 mps 745 mmHg 91%
18:00 +18°C° 0.2 mm 1 mps 745 mmHg 92%
19:00 +18°C° 0.2 mm 1 mps 745 mmHg 94%
20:00 +16°C° 0.1 mm 1 mps 745 mmHg 94%
21:00 +16°C° 0.1 mm 1 mps 746 mmHg 94%
22:00 +16°C° 0.1 mm 1 mps 746 mmHg 94%
23:00 +16°C° 0.4 mm 1 mps 746 mmHg 95%

17 July, Friday

Time Temperature Precipitation Wind Pressure Humidity
00:00 +16°C° 0.4 mm 1 mps 746 mmHg 96%
01:00 +16°C° 0.4 mm 1 mps 746 mmHg 97%
02:00 +15°C° 1 mm 1 mps 746 mmHg 97%
03:00 +14°C° 1 mm 0 mps 746 mmHg 98%
04:00 +14°C° 1 mm 0 mps 746 mmHg 98%
05:00 +14°C° 2 mm 0 mps 746 mmHg 98%
06:00 +16°C° 2 mm 1 mps 746 mmHg 98%
07:00 +16°C° 2 mm 1 mps 746 mmHg 98%
08:00 +16°C° 1.5 mm 1 mps 746 mmHg 97%
09:00 +16°C° 1.5 mm 1 mps 746 mmHg 97%
10:00 +16°C° 1.5 mm 1 mps 747 mmHg 96%
11:00 +16°C° 1.6 mm 1 mps 747 mmHg 96%
12:00 +18°C° 1.6 mm 1 mps 747 mmHg 96%
13:00 +18°C° 1.6 mm 1 mps 747 mmHg 95%
14:00 +18°C° 0.9 mm 1 mps 746 mmHg 95%
15:00 +17°C° 0.9 mm 2 mps 746 mmHg 94%
16:00 +17°C° 0.9 mm 2 mps 746 mmHg 94%
17:00 +16°C° 1 mm 2 mps 746 mmHg 94%
18:00 +16°C° 1 mm 2 mps 746 mmHg 95%
19:00 +15°C° 1 mm 1 mps 746 mmHg 96%
20:00 +15°C° 0.3 mm 2 mps 747 mmHg 95%
21:00 +15°C° 0.3 mm 2 mps 747 mmHg 95%
22:00 +15°C° 0.3 mm 2 mps 747 mmHg 94%
23:00 +15°C° 0.3 mm 2 mps 747 mmHg 94%

18 July, Saturday

Time Temperature Precipitation Wind Pressure Humidity
00:00 +14°C° 0.3 mm 2 mps 747 mmHg 95%
01:00 +14°C° 0.3 mm 2 mps 747 mmHg 95%
02:00 +14°C° 0 mm 2 mps 747 mmHg 95%
03:00 +14°C° 0 mm 2 mps 747 mmHg 95%
04:00 +14°C° 0 mm 2 mps 747 mmHg 95%
05:00 +15°C° 0 mm 2 mps 747 mmHg 93%
06:00 +16°C° 0 mm 2 mps 747 mmHg 91%
07:00 +17°C° 0 mm 3 mps 747 mmHg 89%
08:00 +19°C° 0.1 mm 3 mps 747 mmHg 82%
09:00 +20°C° 0.1 mm 3 mps 747 mmHg 75%
10:00 +21°C° 0.1 mm 3 mps 747 mmHg 67%
11:00 +22°C° 0.2 mm 3 mps 747 mmHg 67%
12:00 +22°C° 0.2 mm 3 mps 747 mmHg 66%
13:00 +22°C° 0.2 mm 3 mps 747 mmHg 66%
14:00 +22°C° 0.5 mm 3 mps 747 mmHg 69%
15:00 +21°C° 0.5 mm 4 mps 747 mmHg 72%
16:00 +21°C° 0.5 mm 4 mps 747 mmHg 76%
17:00 +20°C° 0.1 mm 4 mps 747 mmHg 79%
18:00 +19°C° 0.1 mm 3 mps 747 mmHg 83%
19:00 +17°C° 0.1 mm 3 mps 747 mmHg 86%
20:00 +16°C° 0 mm 3 mps 747 mmHg 88%
21:00 +14°C° 0 mm 3 mps 747 mmHg 90%
22:00 +13°C° 0 mm 2 mps 747 mmHg 92%
23:00 +13°C° 0 mm 2 mps 747 mmHg 92%
Show more